www.pogodaiklimat.ru

Погода и климат >> Архив погоды >> Пакистан >> Хайдарабат


ПОГОДА в Хайдарабате

  • Прогноз погоды в Хайдарабате
  • Монитор погоды в Хайдарабате

АРХИВ ПОГОДЫ в Хайдарабате

Время (UTC), дата Ветер
(напр.,м/с)
 
Видим.   Явления Облачность Т
(С)
Тd
(С)
f
(%)
Тe
(С)
Тes
(С)
Комфортность P
(гПа)
Po
(гПа)
Тmin
(С)
Tmax
(С)
R
(мм)
R24
(мм)
S
(см)
09 14.07 ЮЗ 7 2000 м пыльный позёмок ясно +37.0 +22.8 44 +46 +51 опасность
перегрева
996.4 991.7
12 14.07 ЮЗ 15 2000 м пыльный позёмок ясно +35.5 +23.5 50 +46 +46 опасность
перегрева
995.1 990.4 +37.5
15 14.07 ЮЗ 5 2000 м пыльный позёмок 3/3 750 м
[St]
+31.5 +23.6 63 +43 +43 опасность
перегрева
995.9 991.1
18 14.07 ЮЗ 19 2000 м пыльный позёмок 5/5 750 м
[St]
+30.5 +24.1 69 +42 +42 опасность
перегрева
997.2 992.4
21 14.07 ЮЗ 14 2000 м пыльный позёмок 4/4 750 м
[St]
+30.0 +24.1 71 +42 +42 опасность
перегрева
996.4 991.6
00 15.07 ЮЗ 12 2000 м пыльный позёмок 5/5 750 м
[St]
+29.0 +23.2 71 +39 +39 очень
душно
996.0 991.2
03 15.07 ЮЗ 12 2000 м пыльный позёмок 5/5 750 м
[St]
+31.0 +24.6 69 +44 +44 опасность
перегрева
995.9 991.1 +26.5
06 15.07 ЮЗ 19 4000 м пыльный позёмок 4/4 750 м
[St]
+34.5 +23.9 54 +46 +46 опасность
перегрева
996.1 991.4
09 15.07 ЮЗ 8 4000 м пыльный позёмок 4/4 750 м
[St]
+36.0 +23.2 48 +46 +49 опасность
перегрева
995.1 990.4
12 15.07 ЮЗ 12 4000 м пыльный позёмок 6/6 750 м
[St]
+34.5 +23.9 54 +46 +46 опасность
перегрева
994.6 989.9 +36.0
15 15.07 ЮЗ 8 4000 м пыльный позёмок 8/8 750 м
[St]
+31.5 +23.6 63 +43 +43 опасность
перегрева
995.2 990.4
18 15.07 ЮЗ 17 4000 м пыльный позёмок 6/6 200 м
[St]
+30.0 +24.3 72 +42 +42 опасность
перегрева
996.6 991.8
21 15.07 ЮЗ 7 4000 м пыльный позёмок 5/5 750 м
[St]
+29.5 +24.5 75 +42 +42 опасность
перегрева
996.4 991.6
00 16.07 ЮЗ 11 4000 м пыльный позёмок 3/3 750 м
[St]
+29.0 +24.0 74 +40 +40 очень
душно
996.1 991.3
03 16.07 ЮЗ 5 4000 м пыльный позёмок 4/4 750 м
[St]
+30.5 +25.6 75 +45 +46 опасность
перегрева
997.4 992.6 +27.1
06 16.07 ЮЗ 15 4000 м пыльный позёмок 4/4 750 м
[St]
+34.5 +24.7 57 +48 +48 опасность
перегрева
997.9 993.2
09 16.07 ЮЗ 7 4000 м пыльный позёмок 5/5 200 м
[St]
+36.5 +23.0 46 +46 +49 опасность
перегрева
997.5 992.8
12 16.07 ЮЗ 8 4000 м пыльный позёмок 5/5 750 м
[St]
+34.5 +23.9 54 +46 +46 опасность
перегрева
997.1 992.4 +37.1
15 16.07 ЮЗ 5 4000 м пыльный позёмок 8/8 750 м
[St]
+32.0 +23.4 60 +43 +43 опасность
перегрева
998.2 993.4
18 16.07 ЮЗ 10 4000 м пыльный позёмок 9/9 200 м
[St]
+30.0 +24.3 72 +42 +42 опасность
перегрева
1000.6 995.8
21 16.07 ЮЗ 4 4000 м 5/5 750 м
[St]
+29.5 +24.5 75 +42 +42 опасность
перегрева
999.7 994.9
00 17.07 ЮЗ 4 4000 м 6/6 200 м
[St]
+29.0 +24.8 78 +41 +41 опасность
перегрева
999.5 994.7
03 17.07 ЮЗ 5 4000 м пыльный позёмок 5/5 750 м
[St]
+31.0 +23.9 66 +43 +44 опасность
перегрева
1000.4 995.6 +26.5
06 17.07 ЮЗ 6 4000 м пыльный позёмок 4/4 200 м
[St]
+34.5 +23.9 54 +46 +46 опасность
перегрева
1000.3 995.6
09 17.07 ЮЗ 8 4000 м 3/3 750 м
[St]
+37.5 +23.4 45 +48 +50 опасность
перегрева
998.8 994.1
12 17.07 Ю 8 4000 м пыльный позёмок ясно +35.0 +24.5 55 +48 +49 опасность
перегрева
998.2 993.5 +38.1
15 17.07 ЮЗ 6 4000 м 3/0
[Ac trans]
+32.0 +25.0 67 +46 +46 опасность
перегрева
999.4 994.6
18 17.07 ЮЗ 7 4000 м ясно +30.0 +25.1 75 +43 +43 опасность
перегрева
1000.6 995.8
21 17.07 ЮЗ 3 4000 м ясно +29.5 +25.3 78 +43 +43 опасность
перегрева
999.9 995.1
00 18.07 ЮЗ 6 4000 м ясно +29.0 +24.8 78 +41 +41 опасность
перегрева
999.9 995.1
03 18.07 ЮЗ 2 4000 м ясно +30.0 +24.7 73 +43 +48 опасность
перегрева
1000.5 995.7 +26.5
06 18.07 ЮЗ 8 4000 м 4/4 750 м
[St]
+34.0 +24.9 59 +47 +49 опасность
перегрева
1001.0 996.2
09 18.07 ЮЗ 3 4000 м 5/5 750 м
[St]
+37.5 +26.9 55 +55 +64 опасность
перегрева
999.3 994.6
12 18.07 ЮЗ 8 4000 м пыльный позёмок н/о +35.0 +25.3 57 +49 +49 опасность
перегрева
997.3 992.6 +38.0
15 18.07 ЮЗ 6 4000 м ясно +31.5 +23.6 63 +43 +43 опасность
перегрева
997.9 993.1
18 18.07 ЮЗ 3 4000 м ясно +30.0 +24.3 72 +42 +42 опасность
перегрева
1000.1 995.3
21 18.07 ЮЗ 2 4000 м ясно +29.5 +24.5 75 +42 +42 опасность
перегрева
999.5 994.7
00 19.07 ЮЗ 3 4000 м ясно +28.5 +25.0 81 +41 +41 опасность
перегрева
999.2 994.4
03 19.07 ЮЗ 2 4000 м 3/0
[]
+30.0 +25.1 75 +43 +48 опасность
перегрева
1000.0 995.2 +25.5
06 19.07 ЮЗ 5 4000 м 5/5 750 м
[St]
+34.5 +24.7 57 +48 +53 опасность
перегрева
1000.8 996.1
09 19.07 ЮЗ 3 4000 м 4/4 750 м
[St]
+36.5 +23.8 48 +47 +57 опасность
перегрева
999.7 995.0
12 19.07 ЮЗ 4 4000 м ясно +36.5 +23.0 46 +46 +49 опасность
перегрева
998.0 993.3 +37.0
15 19.07 ЮЗ 2 4000 м ясно +33.0 +24.6 61 +46 +46 опасность
перегрева
998.8 994.0
18 19.07 ЮЗ 5 4000 м ясно +30.5 +24.1 69 +42 +42 опасность
перегрева
1001.3 996.5
21 19.07 ЮЗ 2 4000 м ясно +30.0 +23.5 68 +41 +41 опасность
перегрева
1000.7 995.9
00 20.07 ЮЗ 2 4000 м ясно +29.0 +24.0 74 +40 +40 очень
душно
1000.4 995.6
03 20.07 ЮЗ 5 4000 м ясно +30.5 +24.9 72 +44 +46 опасность
перегрева
1002.0 997.2 +25.5
06 20.07 ЮЗ 4 4000 м ясно +35.0 +23.7 52 +46 +59 опасность
перегрева
1002.1 997.4
09 20.07 ЮЗ 3 4000 м 4/0
[Ac trans]
+39.0 +21.8 37 +46 +58 опасность
перегрева
1001.1 996.4
12 20.07 ЮЗ 5 4000 м 3/0
[Ac trans]
+38.5 +22.0 39 +47 +49 опасность
перегрева
999.0 994.3 +39.4
15 20.07 ЮЗ 3 4000 м ясно +35.0 +22.9 50 +45 +45 опасность
перегрева
999.0 994.3
18 20.07 Ю 3 4000 м ясно +32.5 +22.4 55 +42 +42 опасность
перегрева
1000.6 995.8
21 20.07 ЮЗ 1 4000 м ясно +31.0 +23.1 63 +41 +41 опасность
перегрева
1000.4 995.6
00 21.07 Ю 4 4000 м ясно +30.0 +22.8 65 +40 +40 очень
душно
999.0 994.2
03 21.07 Ю 5 4000 м ясно +30.5 +24.9 72 +44 +46 опасность
перегрева
1000.1 995.3 +27.0

 

Местоположение метеостанции Хайдарабат (Пакистан): широта 25.38 долгота 68.42 высота над уровнем моря 30 м.

В архиве по умолчанию представлена погода в Хайдарабате за последнюю неделю. Архивные данные за месяц целиком и за предыдущие месяцы, начиная с января 2011 года, Вы можете получить, выбрав интересующий диапазон дат из раскрывающегося списка и нажав кнопку "Ввод!".


*Определитесь, кто Вы:
робот инопланетянин человек

Внимание! Время в таблицах - всемирное. Для получения местного времени необходимо прибавить поправку, которая равна 5 ч.

Смотрите также архив погоды в соседних городах и на ближайших метеорологических станциях:

Погода в Сакранде (Пакистан) (32 км)
Погода в Мир Пур Кхас (Пакистан) (56 км)
Погода в Татте (Пакистан) (87 км)
Погода в Бадине (Пакистан) (96 км)
Погода в Навабшахе (Пакистан) (97 км)
Погода в Чоре (Пакистан) (137 км)
Погода в Карачи (Пакистан) (140 км)
Погода в Митхи (Пакистан) (154 км)
Погода в Пад Идан (Пакистан) (166 км)
Погода в Мохенджо-Даро (Пакистан) (218 км)

Пояснения к столбцам:

Ветер - указаны скорость ветра в м/с - средняя за 10 мин, порывы в срок и между сроками (в фигурных скобках) и направление, откуда дует ветер: С - северный, СВ - северо-восточный, В - восточный, ЮВ - юго-восточный, Ю - южный, ЮЗ - юго-западный, З - западный, СЗ - северо-западный.
Видимость - горизонтальная дальность видимости в метрах или километрах. При видимости от 1 до 10 км при отсутствии осадков обычно наблюдается дымка, при ухудшении видимости до 1 км и менее - туман. В сухую погоду видимость может ухудшаться дымом, пылью или мглою.
Явления - указаны атмосферные явления, наблюдавшиеся в срок или в последний час перед сроком; фигурными скобками обозначены явления, наблюдавшиеся между сроками (за 1-3 часа до срока); квадратными скобками обозначены град или гололедные отложения с указанием их диаметра в мм.
Облачность - указаны через наклонную черту общая и нижняя облачность в баллах и высота нижней границы облаков в метрах; квадратными скобками обозначены формы облаков: Ci - перистые, Cs - перисто-слоистые, Cc - перисто-кучевые, Ac - высококучевые, As - высокослоистые, Sc - слоисто-кучевые, Ns - слоисто-дождевые, Cu - кучевые, Cb - кучево-дождевые. Подробнее классификацию облаков см. в Атласе облаков (PDF).
T - Температура воздуха - температура, измеренная на высоте 2 м над землей.
Td - Температура точки росы - температура, при понижении до которой содержащийся в воздухе водяной пар достигнет насыщения.
f - Относительная влажность воздуха - влажноcть воздуха, измеренная на высоте 2 м над землей.
Te - Эффективная температура - температура, которую ощущает одетый по сезону человек в тени. Характеристика душности погоды. При расчете учитывается влияние влажности воздуха и скорости ветра на теплоощущения человека.
Tes - Эффективная температура на солнце - температура, которую ощущает человек, с поправкой на солнечный нагрев. Характеристика знойности погоды. Зависит от высоты солнца над горизонтом, облачности и скорости ветра. Ночью, в пасмурную погоду, а также при ветре 12 м/с и более поправка равна нулю.
P - Атмосферное давление - приведенное к уровню моря атмосферное давление.
Po - Атмосферное давление - измеренное на уровне метеостанции атмосферное давление.
Tmin - Минимальная температура - минимум температуры воздуха на высоте 2 м над землей.
Tmax - Максимальная температура - максимум температуры воздуха на высоте 2 м над землей.
R - Количество осадков - Количество выпавших осадков за период времени, мм. При наведении курсора мыши на число - период времени, за который выпало указанное количество осадков.
R24 - Количество осадков - Количество выпавших осадков за 24 часа, мм.
S - Снежный покров - Высота снежного покрова, см. При наведении курсора мыши на число - состояние снежного покрова и степень покрытия местности в баллах.